Flag for Norway Weather past 2 weeks in Trondheim, Norway

Now
55 °F

Broken clouds.


Feels Like: 54 °F
Forecast: 53 / 59 °F
Wind: 7 mph from Northwest

Location: Trondheim / Vaernes

Current Time: Aug 20, 2014 at 9:11:52 AM

Latest Report: Aug 20, 2014 at 8:20 AM


Visibility: N/A

Pressure: 29.42 "Hg

Humidity: 88%

Dew point: 52 °F

Location of TrondheimLocation

Historic Weather in Trondheim — Graph

°F

Trondheim temperature yesterday

Maximum temperature yesterday: 64 °F (at 1:50 PM)
Minimum temperature yesterday: 52 °F (at 2:50 AM)
Average temperature yesterday: 57 °F

Past Weeks' High & Low Weather Summary

 TemperatureHumidityPressure
High82 °F (Aug 9, 3:50 PM)100% (Aug 6, 3:50 AM)30.07 "Hg (Aug 6, 3:50 AM)
Low46 °F (Aug 16, 5:50 AM)32% (Aug 9, 4:50 PM)29.15 "Hg (Aug 18, 7:50 PM)
Average61 °F73%29.62 "Hg
* Reported Aug 5 7:20 AM — Aug 20 7:20 AM, Trondheim, Weather by CustomWeather, © 2014

Note: Actual official high and low records may vary slightly from our data, if they occured in-between our weather recording intervals... More about our weather records

Advertising

Trondheim weather history for previous 24 hours

 ConditionsComfort  
Time TempWeatherWind HumidityBarometerVisibility
7:20 AM
Aug 20
54 °FMore clouds than sun.1 mph94%29.42 "HgN/A
6:50 AM54 °FMostly cloudy.1 mph94%29.42 "HgN/A
6:20 AM54 °FPartly cloudy.1 mph94%29.42 "HgN/A
5:50 AM54 °FScattered showers. Passing clouds.2 mph94%29.42 "HgN/A
4:50 AM54 °FScattered showers. Partly cloudy.3 mph94%29.42 "HgN/A
3:50 AM52 °FPartly cloudy.1 mph94%29.42 "HgN/A
2:50 AM52 °FPassing clouds.2 mph94%29.42 "HgN/A
1:50 AM52 °FPassing clouds.5 mph94%29.39 "HgN/A
1:20 AM52 °FPassing clouds.3 mph100%29.39 "HgN/A
12:50 AM54 °FPassing clouds.2 mph94%29.39 "HgN/A
11:50 PM
Aug 19
54 °FPartly cloudy.7 mph94%29.39 "HgN/A
11:20 PM55 °FPassing clouds.3 mph88%29.39 "HgN/A
10:50 PM55 °FPassing clouds.3 mph88%29.39 "HgN/A
10:20 PM55 °FScattered showers. Passing clouds.3 mph94%29.39 "HgN/A
9:50 PM55 °FScattered showers. Scattered clouds.2 mph94%29.36 "HgN/A
9:20 PM55 °FScattered showers. Scattered clouds.3 mph94%29.36 "HgN/A
8:50 PM57 °FScattered clouds.5 mph88%29.36 "HgN/A
8:20 PM57 °FScattered showers. Scattered clouds.1 mph88%29.36 "HgN/A
7:50 PM59 °FScattered showers. Partly sunny.3 mph77%29.33 "HgN/A
7:20 PM59 °FScattered clouds.8 mph72%29.33 "HgN/A
6:50 PM59 °FScattered showers. Scattered clouds.9 mph77%29.33 "HgN/A
6:20 PM59 °FScattered showers. Scattered clouds.8 mph77%29.33 "HgN/A
5:50 PM61 °FScattered showers. Scattered clouds.9 mph72%29.33 "HgN/A
5:20 PM61 °FScattered clouds.10 mph72%29.30 "HgN/A
4:50 PM59 °FScattered showers. Scattered clouds.9 mph77%29.30 "HgN/A
4:20 PM59 °FScattered showers. Scattered clouds.6 mph77%29.30 "HgN/A
3:50 PM59 °FScattered clouds.3 mph77%29.30 "HgN/A
3:20 PM57 °FScattered showers. Scattered clouds.7 mph88%29.30 "HgN/A
2:50 PM59 °FPassing clouds.10 mph77%29.30 "HgN/A
2:20 PM63 °FBroken clouds.9 mph64%29.27 "HgN/A
1:50 PM64 °FBroken clouds.No wind56%29.27 "HgN/A
1:20 PM63 °FBroken clouds.7 mph59%29.27 "HgN/A
12:50 PM61 °FBroken clouds.8 mph68%29.24 "HgN/A
12:20 PM61 °FBroken clouds.7 mph68%29.24 "HgN/A
11:50 AM61 °FBroken clouds.7 mph68%29.24 "HgN/A
11:20 AM61 °FBroken clouds.7 mph68%29.24 "HgN/A
10:50 AM61 °FBroken clouds.7 mph72%29.24 "HgN/A
10:20 AM59 °FPartly sunny.6 mph72%29.24 "HgN/A
9:50 AM55 °FPartly sunny.6 mph82%29.21 "HgN/A
9:20 AM54 °FPartly sunny.6 mph82%29.21 "HgN/A
Weather by CustomWeather, © 2014

See weather overviewHow to use our weather pages